When you browse on this site, cookies collect data to enhance your experience and personalize the content and advertising you see.
Visit our Privacy Policy to learn more. By continuing to use the site, you agree to this use of cookies and data.
  • In Latvia
  • List of Countries
  • For 7 days
  • Water Temperature
  • Weather Map
  • Weather Widgets
  • user-avatar
    Login

    Hourly Weather Horgen

    Today, 22 October, Tuesday

    Time Temperature Precipitation Wind Pressure Humidity
    00:00 +12°C° 0.6 mm 0 mps 718 mmHg 97%
    01:00 +12°C° 0 mm 0 mps 718 mmHg 98%
    02:00 +12°C° 0 mm 0 mps 718 mmHg 98%
    03:00 +12°C° 0 mm 0 mps 718 mmHg 98%
    04:00 +12°C° 0 mm 0 mps 718 mmHg 97%
    05:00 +12°C° 0 mm 0 mps 718 mmHg 97%
    06:00 +12°C° 0 mm 0 mps 718 mmHg 97%
    07:00 +12°C° 0 mm 0 mps 718 mmHg 97%
    08:00 +13°C° 0 mm 0 mps 718 mmHg 95%
    09:00 +14°C° 0 mm 0 mps 718 mmHg 93%
    10:00 +14°C° 0 mm 0 mps 718 mmHg 90%
    11:00 +16°C° 0 mm 1 mps 718 mmHg 88%
    12:00 +18°C° 0 mm 1 mps 718 mmHg 86%
    13:00 +18°C° 0 mm 1 mps 718 mmHg 84%
    14:00 +18°C° 0 mm 1 mps 718 mmHg 86%
    15:00 +18°C° 0 mm 1 mps 718 mmHg 87%
    16:00 +16°C° 0 mm 1 mps 717 mmHg 89%
    17:00 +16°C° 0 mm 1 mps 717 mmHg 90%
    18:00 +15°C° 0 mm 1 mps 717 mmHg 91%
    19:00 +15°C° 0 mm 1 mps 718 mmHg 92%
    20:00 +14°C° 0 mm 1 mps 717 mmHg 92%
    21:00 +14°C° 0 mm 1 mps 717 mmHg 93%
    22:00 +13°C° 0 mm 1 mps 717 mmHg 93%
    23:00 +13°C° 0 mm 1 mps 717 mmHg 93%

    Tomorrow, 23 October, Wednesday

    Time Temperature Precipitation Wind Pressure Humidity
    00:00 +12°C° 0 mm 1 mps 717 mmHg 93%
    01:00 +12°C° 0 mm 1 mps 716 mmHg 93%
    02:00 +12°C° 0 mm 1 mps 716 mmHg 92%
    03:00 +11°C° 0 mm 1 mps 716 mmHg 92%
    04:00 +11°C° 0 mm 1 mps 715 mmHg 91%
    05:00 +11°C° 0 mm 1 mps 715 mmHg 91%
    06:00 +11°C° 0 mm 1 mps 715 mmHg 90%
    07:00 +11°C° 0 mm 1 mps 714 mmHg 89%
    08:00 +13°C° 0 mm 1 mps 714 mmHg 86%
    09:00 +14°C° 0 mm 1 mps 714 mmHg 82%
    10:00 +16°C° 0 mm 1 mps 714 mmHg 78%
    11:00 +18°C° 0 mm 1 mps 714 mmHg 74%
    12:00 +19°C° 0 mm 1 mps 714 mmHg 69%
    13:00 +20°C° 0 mm 1 mps 714 mmHg 64%
    14:00 +20°C° 0 mm 1 mps 713 mmHg 67%
    15:00 +19°C° 0 mm 1 mps 713 mmHg 71%
    16:00 +19°C° 0 mm 1 mps 713 mmHg 74%
    17:00 +18°C° 0 mm 1 mps 713 mmHg 77%
    18:00 +15°C° 0 mm 1 mps 712 mmHg 79%
    19:00 +14°C° 0 mm 2 mps 712 mmHg 82%
    20:00 +14°C° 0 mm 2 mps 712 mmHg 80%
    21:00 +14°C° 0 mm 2 mps 712 mmHg 78%
    22:00 +13°C° 0 mm 2 mps 712 mmHg 77%
    23:00 +13°C° 0 mm 2 mps 711 mmHg 76%

    Day after tomorrow, 24 October, Thursday

    Time Temperature Precipitation Wind Pressure Humidity
    00:00 +13°C° 0 mm 2 mps 711 mmHg 76%
    01:00 +13°C° 0 mm 2 mps 711 mmHg 76%
    02:00 +13°C° 0 mm 2 mps 711 mmHg 77%
    03:00 +13°C° 0 mm 2 mps 710 mmHg 78%
    04:00 +13°C° 0 mm 2 mps 710 mmHg 79%
    05:00 +12°C° 0 mm 2 mps 710 mmHg 80%
    06:00 +12°C° 0 mm 1 mps 710 mmHg 81%
    07:00 +12°C° 0 mm 1 mps 710 mmHg 81%
    08:00 +13°C° 0 mm 1 mps 711 mmHg 77%
    09:00 +15°C° 0 mm 1 mps 711 mmHg 72%
    10:00 +16°C° 0 mm 0 mps 711 mmHg 68%
    11:00 +16°C° 0 mm 0 mps 711 mmHg 67%
    12:00 +19°C° 0 mm 1 mps 712 mmHg 66%
    13:00 +20°C° 0 mm 1 mps 712 mmHg 64%
    14:00 +19°C° 0.1 mm 1 mps 712 mmHg 68%
    15:00 +19°C° 0.1 mm 1 mps 712 mmHg 72%
    16:00 +18°C° 0.1 mm 1 mps 712 mmHg 76%
    17:00 +16°C° 0.1 mm 1 mps 712 mmHg 80%
    18:00 +15°C° 0.1 mm 1 mps 712 mmHg 83%
    19:00 +13°C° 0.1 mm 1 mps 712 mmHg 87%
    20:00 +13°C° 0 mm 1 mps 713 mmHg 87%
    21:00 +13°C° 0 mm 1 mps 713 mmHg 87%
    22:00 +13°C° 0 mm 1 mps 714 mmHg 88%
    23:00 +13°C° 0.1 mm 1 mps 714 mmHg 88%

    25 October, Friday

    Time Temperature Precipitation Wind Pressure Humidity
    00:00 +13°C° 0.1 mm 1 mps 715 mmHg 89%
    01:00 +13°C° 0.1 mm 1 mps 715 mmHg 89%
    02:00 +13°C° 0 mm 1 mps 715 mmHg 90%
    03:00 +12°C° 0 mm 1 mps 715 mmHg 92%
    04:00 +11°C° 0 mm 0 mps 716 mmHg 93%
    05:00 +11°C° 0 mm 0 mps 716 mmHg 93%
    06:00 +10°C° 0 mm 0 mps 716 mmHg 93%
    07:00 +10°C° 0 mm 0 mps 716 mmHg 93%
    08:00 +11°C° 0 mm 0 mps 717 mmHg 88%
    09:00 +13°C° 0 mm 1 mps 717 mmHg 83%
    10:00 +15°C° 0 mm 1 mps 718 mmHg 78%
    11:00 +15°C° 0 mm 1 mps 717 mmHg 75%
    12:00 +16°C° 0 mm 1 mps 717 mmHg 72%
    13:00 +16°C° 0 mm 1 mps 717 mmHg 69%
    14:00 +16°C° 0 mm 1 mps 717 mmHg 71%
    15:00 +15°C° 0 mm 1 mps 717 mmHg 74%
    16:00 +15°C° 0 mm 1 mps 716 mmHg 76%
    17:00 +12°C° 0 mm 0 mps 716 mmHg 82%
    18:00 +11°C° 0 mm 0 mps 716 mmHg 87%
    19:00 +9°C° 0 mm 0 mps 716 mmHg 92%
    20:00 +9°C° 0 mm 0 mps 716 mmHg 92%
    21:00 +10°C° 0 mm 1 mps 717 mmHg 92%
    22:00 +10°C° 0 mm 1 mps 717 mmHg 92%
    23:00 +10°C° 0 mm 1 mps 716 mmHg 91%

    26 October, Saturday

    Time Temperature Precipitation Wind Pressure Humidity
    00:00 +10°C° 0 mm 1 mps 716 mmHg 90%
    01:00 +10°C° 0 mm 1 mps 716 mmHg 89%
    02:00 +10°C° 0 mm 1 mps 716 mmHg 88%
    03:00 +10°C° 0 mm 1 mps 716 mmHg 87%
    04:00 +10°C° 0 mm 1 mps 716 mmHg 86%
    05:00 +9°C° 0 mm 1 mps 716 mmHg 85%
    06:00 +9°C° 0 mm 1 mps 716 mmHg 84%
    07:00 +9°C° 0 mm 1 mps 716 mmHg 83%
    08:00 +11°C° 0 mm 1 mps 716 mmHg 76%
    09:00 +13°C° 0 mm 0 mps 716 mmHg 70%
    10:00 +15°C° 0 mm 0 mps 717 mmHg 64%
    11:00 +18°C° 0 mm 1 mps 717 mmHg 60%
    12:00 +19°C° 0 mm 1 mps 717 mmHg 56%
    13:00 +20°C° 0 mm 1 mps 716 mmHg 53%
    14:00 +19°C° 0 mm 1 mps 716 mmHg 58%
    15:00 +19°C° 0 mm 1 mps 716 mmHg 63%
    16:00 +18°C° 0 mm 1 mps 715 mmHg 68%
    17:00 +15°C° 0 mm 1 mps 715 mmHg 73%
    18:00 +14°C° 0 mm 1 mps 715 mmHg 77%
    19:00 +12°C° 0 mm 1 mps 715 mmHg 82%
    20:00 +12°C° 0 mm 1 mps 715 mmHg 82%
    21:00 +11°C° 0 mm 1 mps 715 mmHg 82%
    22:00 +11°C° 0 mm 1 mps 715 mmHg 82%
    23:00 +11°C° 0 mm 1 mps 715 mmHg 81%

    27 October, Sunday

    Time Temperature Precipitation Wind Pressure Humidity
    00:00 +11°C° 0 mm 1 mps 715 mmHg 81%
    01:00 +11°C° 0 mm 1 mps 715 mmHg 81%
    02:00 +10°C° 0 mm 1 mps 715 mmHg 80%
    03:00 +10°C° 0 mm 1 mps 714 mmHg 79%
    04:00 +10°C° 0 mm 1 mps 714 mmHg 79%
    05:00 +10°C° 0 mm 1 mps 714 mmHg 78%
    06:00 +10°C° 0 mm 1 mps 714 mmHg 78%
    07:00 +10°C° 0 mm 1 mps 714 mmHg 77%
    08:00 +12°C° 0 mm 1 mps 714 mmHg 72%
    09:00 +14°C° 0 mm 1 mps 714 mmHg 66%
    10:00 +15°C° 0 mm 0 mps 714 mmHg 61%
    11:00 +18°C° 0 mm 1 mps 715 mmHg 59%
    12:00 +18°C° 0 mm 1 mps 715 mmHg 56%
    13:00 +18°C° 0 mm 2 mps 715 mmHg 54%
    14:00 +18°C° 0 mm 1 mps 715 mmHg 58%
    15:00 +16°C° 0 mm 1 mps 714 mmHg 63%
    16:00 +15°C° 0 mm 1 mps 714 mmHg 68%
    17:00 +14°C° 0 mm 1 mps 714 mmHg 70%
    18:00 +12°C° 0 mm 0 mps 715 mmHg 73%
    19:00 +11°C° 0 mm 0 mps 715 mmHg 75%
    20:00 +11°C° 0 mm 0 mps 715 mmHg 75%
    21:00 +11°C° 0 mm 0 mps 715 mmHg 76%
    22:00 +11°C° 0 mm 0 mps 715 mmHg 77%
    23:00 +11°C° 0 mm 0 mps 715 mmHg 77%

    28 October, Monday

    Time Temperature Precipitation Wind Pressure Humidity
    00:00 +11°C° 0 mm 0 mps 715 mmHg 78%
    01:00 +11°C° 0 mm 0 mps 714 mmHg 79%
    02:00 +11°C° 0.1 mm 0 mps 714 mmHg 82%
    03:00 +11°C° 0.1 mm 0 mps 714 mmHg 85%
    04:00 +10°C° 0.1 mm 0 mps 714 mmHg 88%
    05:00 +10°C° 0.7 mm 0 mps 714 mmHg 90%
    06:00 +10°C° 0.7 mm 0 mps 714 mmHg 92%
    07:00 +10°C° 0.7 mm 0 mps 713 mmHg 95%
    08:00 +11°C° 0.7 mm 0 mps 713 mmHg 95%
    09:00 +11°C° 0.7 mm 0 mps 714 mmHg 95%
    10:00 +11°C° 0.7 mm 0 mps 714 mmHg 95%
    11:00 +11°C° 0.6 mm 0 mps 714 mmHg 95%
    12:00 +12°C° 0.6 mm 0 mps 714 mmHg 95%
    13:00 +12°C° 0.6 mm 0 mps 714 mmHg 96%
    14:00 +12°C° 0.2 mm 0 mps 713 mmHg 95%
    15:00 +12°C° 0.2 mm 0 mps 713 mmHg 95%
    16:00 +13°C° 0.2 mm 1 mps 713 mmHg 94%
    17:00 +12°C° 0.1 mm 0 mps 713 mmHg 95%
    18:00 +11°C° 0.1 mm 0 mps 713 mmHg 95%
    19:00 +11°C° 0.1 mm 0 mps 713 mmHg 96%
    20:00 +11°C° 0.4 mm 0 mps 713 mmHg 96%
    21:00 +11°C° 0.4 mm 0 mps 713 mmHg 96%
    22:00 +11°C° 0.4 mm 0 mps 713 mmHg 97%
    23:00 +11°C° 0.2 mm 0 mps 713 mmHg 97%
    Show more